Location: Songkhla
(7.2000°N, 100.6000°E)
Time: 16:14:08
(UTC+07:00)

Daily predictions for brighter satellites

Satellite Brightness Start Highest point End
(mag) Time Altitude Azimuth Time Altitude Azimuth Time Altitude Azimuth
CZ-3C R/B 3.4 17:40:51 10° WSW 17:45:53 78° SSE 18:43:38 10° ENE
CZ-3C R/B 3.4 17:40:51 10° WSW 17:45:54 78° SSE 18:43:38 10° ENE
Milstar 3 3.5 18:44:02 10° WNW 18:51:03 74° SSW 19:02:30 10° SE
Meteor 2-3 Rocket 4.4 18:49:36 10° SSE 18:54:45 35° E 18:59:55 10° NNE
CZ-2C R/B 4.5 18:52:55 10° ESE 18:56:15 18° ENE 18:59:28 10° NE
Cosmos 2221 2.9 18:53:32 10° N 18:57:44 68° W 19:01:58 10° S
Cosmos 1633 4.3 18:56:05 10° SE 18:58:00 14° E 18:59:53 10° ENE
FALCON 9 R/B 0.8 18:54:42 10° WNW 18:59:04 74° SW 19:01:21 10° SE
Ariane H10 3.6 18:56:56 10° W 19:00:50 42° S 19:03:13 10° ESE
COSMOS 2455 3.7 18:55:08 10° NNW 19:00:59 55° WSW 19:06:49 10° S
CZ-4 R/B 1.4 18:59:17 10° SSE 19:03:01 52° ENE 19:06:46 10° N
Cosmos 1295 Rocket 4.4 18:58:41 10° S 19:04:46 85° E 19:10:50 10° N
Cosmos 2369 Rocket 2.3 19:03:40 10° N 19:09:14 60° ENE 19:14:49 10° SSE
Cosmos 1900 4.2 19:06:30 10° SSW 19:11:19 75° ESE 19:16:11 10° NNE
RESURS DK-1 3.5 19:07:33 10° NNW 19:11:31 47° WSW 19:15:30 10° S
Yuri Rocket 2.9 19:10:13 10° SW 19:14:54 75° SSE 19:19:01 10° ENE
Cosmos 304 Rocket 3.7 19:14:37 10° N 19:19:23 81° ENE 19:24:09 10° SSE
Cosmos 2366 rocket 4.5 19:14:14 10° SSE 19:20:00 37° E 19:25:41 10° NNE
FALCON 9 DEB 3.1 19:17:54 10° SW 19:21:21 90° SW 19:24:50 10° NE
CSL-04 Debris 4.4 19:16:03 10° SSE 19:21:21 51° ENE 19:26:38 10° N
CZ-2C R/B 2.9 19:22:42 10° NNE 19:27:34 41° ESE 19:32:33 10° S
Cosmos 1452 Rocket 4.0 19:22:34 10° NNW 19:27:44 61° WSW 19:32:54 10° S
Cosmos 2341 Rocket 4.0 19:22:18 10° S 19:28:31 89° W 19:34:44 10° N
SL-8 Rocket 3.9 19:27:03 10° S 19:33:09 70° E 19:39:15 10° N
Cosmos 1833 Rocket 3.3 19:29:49 10° SSE 19:34:39 30° ESE 19:39:28 10° NE
H-2A R/B 2.5 19:31:09 13° SE 19:35:38 43° ENE 19:40:34 10° N
Cosmos 1656 Rocket 3.9 19:31:54 10° N 19:37:15 49° ENE 19:40:54 20° SE
YAOGAN 1 3.2 19:34:23 10° S 19:38:37 58° WSW 19:42:51 10° NNW
MOS 1 Rocket 4.0 19:37:52 10° N 19:43:08 63° WNW 19:48:11 10° SSW
Cosmos 1331 Rocket 4.1 19:38:25 10° N 19:43:27 51° ENE 19:46:12 25° SE
Centaur D-1A AC-32 4.5 19:42:46 10° SW 19:43:50 11° SSW 19:44:52 10° SSW
Cosmos 1933 4.1 19:41:08 10° NNE 19:44:38 31° E 19:44:38 31° E
ATLAS 5 CENTAUR R/B 2.2 19:42:44 10° SSW 19:45:31 27° SE 19:45:38 27° SE
Cosmos 1943 Rocket 4.0 19:41:12 10° NW 19:45:58 30° WSW 19:50:43 10° SSW
HJ-1C 3.3 19:46:00 24° S 19:47:52 86° WSW 19:51:13 10° NNW
SJ-11-01 4.2 19:49:23 15° SSE 19:53:19 88° E 19:58:02 10° N
GPS 2-15 Rocket1 4.5 19:53:16 10° SSW 19:56:21 23° S 19:56:21 23° S
Cosmos 1151 Rocket 3.1 19:53:16 10° N 19:57:24 51° E 19:57:33 51° E
Cosmos 1743 Rocket 3.4 19:54:16 10° S 19:58:38 80° E 20:03:02 10° N
DMSP B5D2-2 4.1 19:55:20 10° N 20:00:34 84° WNW 20:05:50 10° SSW
CZ-2C R/B 3.6 19:56:20 10° NNE 20:00:45 56° ESE 20:01:19 52° SE
ARIANE 5 R/B 3.4 19:33:26 10° WSW 20:01:03 53° S 20:02:56 38° SE
Cosmos 2218 Rocket 4.1 19:54:52 10° S 20:01:07 77° W 20:07:17 10° N
COSMOS 2406 3.4 19:59:57 10° SSW 20:05:41 73° WNW 20:11:26 10° N
Meteor 1-26 Rocket 4.5 20:01:03 10° NNE 20:05:52 43° ENE 20:05:52 43° ENE
Cosmos 1606 3.5 20:10:19 10° NNW 20:13:59 48° W 20:14:53 39° SW
Cosmos 1500 Rocket 4.2 20:14:53 13° SSW 20:18:33 54° W 20:22:45 10° N
Cosmos 1339 Rocket 4.4 20:14:23 10° N 20:20:36 65° E 20:21:15 61° ESE
BLOCK-DM UPPERSTAGE 4.4 20:09:36 10° W 20:20:38 43° SSW 20:21:13 41° S
ARIANE 5 DEB (SYLDA) 3.8 20:18:38 10° W 20:39:33 70° S 20:39:57 68° SSE
MOS 1 4.5 20:44:22 65° NNW 20:44:22 65° NNW 20:49:07 10° NNW
ARGOS 4.3 20:43:40 32° SW 20:45:16 40° WSW 20:50:18 10° NNW
